• In Latvia
  • List of Countries
  • For 7 days
  • Water Temperature
  • Satellite Maps
  • Weather Map
  • Weather Widgets
  • user-avatar
    Login

    Hourly Weather Livingstone

    Today, 19 February, Monday

    Time Temperature Precipitation Wind Pressure Humidity
    00:00 +22°C° 0 mm 1 mps 680 mmHg 94%
    01:00 +22°C° 0 mm 1 mps 680 mmHg 94%
    02:00 +22°C° 0 mm 1 mps 680 mmHg 94%
    03:00 +22°C° 0 mm 1 mps 680 mmHg 94%
    04:00 +22°C° 0 mm 1 mps 680 mmHg 94%
    05:00 +21°C° 0 mm 1 mps 680 mmHg 95%
    06:00 +22°C° 0 mm 1 mps 681 mmHg 92%
    07:00 +23°C° 0 mm 1 mps 681 mmHg 90%
    08:00 +24°C° 0 mm 1 mps 682 mmHg 88%
    09:00 +25°C° 0.7 mm 2 mps 682 mmHg 83%
    10:00 +27°C° 0.7 mm 2 mps 682 mmHg 77%
    11:00 +28°C° 0.7 mm 2 mps 682 mmHg 72%
    12:00 +29°C° 0.3 mm 2 mps 682 mmHg 66%
    13:00 +30°C° 0.3 mm 3 mps 681 mmHg 60%
    14:00 +31°C° 0.3 mm 3 mps 681 mmHg 55%
    15:00 +31°C° 0.5 mm 3 mps 681 mmHg 58%
    16:00 +30°C° 0.5 mm 3 mps 680 mmHg 62%
    17:00 +30°C° 0.5 mm 2 mps 680 mmHg 66%
    18:00 +28°C° 0.9 mm 2 mps 680 mmHg 73%
    19:00 +26°C° 0.9 mm 2 mps 680 mmHg 80%
    20:00 +24°C° 0.9 mm 1 mps 680 mmHg 87%
    21:00 +24°C° 0.2 mm 1 mps 681 mmHg 88%
    22:00 +23°C° 0.2 mm 1 mps 681 mmHg 89%
    23:00 +23°C° 0.2 mm 1 mps 681 mmHg 90%

    Tomorrow, 20 February, Tuesday

    Time Temperature Precipitation Wind Pressure Humidity
    00:00 +23°C° 0 mm 1 mps 681 mmHg 90%
    01:00 +23°C° 0 mm 1 mps 681 mmHg 91%
    02:00 +21°C° 0 mm 0 mps 680 mmHg 91%
    03:00 +23°C° 0 mm 1 mps 680 mmHg 91%
    04:00 +22°C° 0 mm 1 mps 680 mmHg 91%
    05:00 +22°C° 0 mm 1 mps 680 mmHg 92%
    06:00 +23°C° 0 mm 1 mps 680 mmHg 90%
    07:00 +24°C° 0 mm 1 mps 681 mmHg 88%
    08:00 +24°C° 0 mm 1 mps 682 mmHg 86%
    09:00 +26°C° 1 mm 1 mps 682 mmHg 82%
    10:00 +27°C° 1 mm 1 mps 682 mmHg 78%
    11:00 +28°C° 1 mm 2 mps 682 mmHg 73%
    12:00 +29°C° 0.8 mm 2 mps 681 mmHg 70%
    13:00 +30°C° 0.8 mm 2 mps 681 mmHg 66%
    14:00 +30°C° 0.8 mm 2 mps 680 mmHg 63%
    15:00 +30°C° 1.3 mm 2 mps 680 mmHg 68%
    16:00 +29°C° 1.3 mm 2 mps 679 mmHg 73%
    17:00 +28°C° 1.3 mm 2 mps 679 mmHg 78%
    18:00 +27°C° 1.6 mm 2 mps 679 mmHg 82%
    19:00 +25°C° 1.6 mm 1 mps 679 mmHg 87%
    20:00 +24°C° 1.6 mm 1 mps 680 mmHg 91%
    21:00 +23°C° 0.6 mm 1 mps 680 mmHg 91%
    22:00 +21°C° 0.6 mm 0 mps 680 mmHg 91%
    23:00 +21°C° 0.6 mm 0 mps 681 mmHg 91%

    Day after tomorrow, 21 February, Wednesday

    Time Temperature Precipitation Wind Pressure Humidity
    00:00 +21°C° 0.1 mm 0 mps 680 mmHg 92%
    01:00 +21°C° 0.1 mm 0 mps 680 mmHg 93%
    02:00 +22°C° 0.1 mm 1 mps 679 mmHg 94%
    03:00 +22°C° 0 mm 1 mps 679 mmHg 94%
    04:00 +22°C° 0 mm 1 mps 679 mmHg 94%
    05:00 +22°C° 0 mm 1 mps 679 mmHg 95%
    06:00 +22°C° 0 mm 1 mps 680 mmHg 93%
    07:00 +23°C° 0 mm 1 mps 680 mmHg 92%
    08:00 +23°C° 0 mm 1 mps 681 mmHg 90%
    09:00 +25°C° 0.6 mm 1 mps 681 mmHg 85%
    10:00 +26°C° 0.6 mm 1 mps 681 mmHg 79%
    11:00 +28°C° 0.6 mm 2 mps 681 mmHg 73%
    12:00 +28°C° 1.1 mm 2 mps 680 mmHg 74%
    13:00 +28°C° 1.1 mm 2 mps 679 mmHg 74%
    14:00 +28°C° 1.1 mm 2 mps 678 mmHg 74%
    15:00 +28°C° 1.7 mm 2 mps 678 mmHg 76%
    16:00 +28°C° 1.7 mm 2 mps 678 mmHg 78%
    17:00 +27°C° 1.7 mm 1 mps 678 mmHg 81%
    18:00 +26°C° 1.3 mm 1 mps 678 mmHg 84%
    19:00 +25°C° 1.3 mm 1 mps 678 mmHg 88%
    20:00 +23°C° 1.3 mm 1 mps 678 mmHg 91%
    21:00 +23°C° 1.1 mm 1 mps 678 mmHg 92%
    22:00 +23°C° 1.1 mm 2 mps 679 mmHg 92%
    23:00 +23°C° 1.1 mm 2 mps 679 mmHg 93%

    22 February, Thursday

    Time Temperature Precipitation Wind Pressure Humidity
    00:00 +23°C° 0.5 mm 2 mps 678 mmHg 93%
    01:00 +21°C° 0.5 mm 2 mps 678 mmHg 94%
    02:00 +21°C° 0.5 mm 2 mps 678 mmHg 94%
    03:00 +21°C° 0.2 mm 2 mps 678 mmHg 95%
    04:00 +21°C° 0.2 mm 2 mps 678 mmHg 95%
    05:00 +21°C° 0.2 mm 2 mps 678 mmHg 95%
    06:00 +21°C° 0.2 mm 2 mps 678 mmHg 94%
    07:00 +21°C° 0.2 mm 2 mps 679 mmHg 93%
    08:00 +22°C° 0.2 mm 3 mps 679 mmHg 92%
    09:00 +24°C° 0.6 mm 3 mps 679 mmHg 88%
    10:00 +25°C° 0.6 mm 3 mps 680 mmHg 85%
    11:00 +26°C° 0.6 mm 3 mps 680 mmHg 81%
    12:00 +27°C° 1 mm 3 mps 679 mmHg 80%
    13:00 +27°C° 1 mm 3 mps 679 mmHg 79%
    14:00 +28°C° 1 mm 3 mps 678 mmHg 78%
    15:00 +27°C° 1 mm 3 mps 678 mmHg 80%
    16:00 +27°C° 1 mm 2 mps 677 mmHg 82%
    17:00 +27°C° 1 mm 2 mps 677 mmHg 84%
    18:00 +26°C° 0.8 mm 1 mps 677 mmHg 87%
    19:00 +24°C° 0.8 mm 1 mps 678 mmHg 90%
    20:00 +23°C° 0.8 mm 1 mps 678 mmHg 93%
    21:00 +23°C° 0.3 mm 1 mps 678 mmHg 93%
    22:00 +23°C° 0.3 mm 1 mps 679 mmHg 94%
    23:00 +23°C° 0.3 mm 1 mps 679 mmHg 95%

    23 February, Friday

    Time Temperature Precipitation Wind Pressure Humidity
    00:00 +21°C° 0.2 mm 2 mps 678 mmHg 95%
    01:00 +21°C° 0.2 mm 2 mps 678 mmHg 95%
    02:00 +21°C° 0.2 mm 2 mps 678 mmHg 95%
    03:00 +21°C° 0.1 mm 2 mps 678 mmHg 95%
    04:00 +21°C° 0.1 mm 2 mps 678 mmHg 95%
    05:00 +20°C° 0.1 mm 2 mps 678 mmHg 94%
    06:00 +21°C° 0.1 mm 2 mps 678 mmHg 93%
    07:00 +21°C° 0.1 mm 2 mps 679 mmHg 92%
    08:00 +22°C° 0.1 mm 3 mps 680 mmHg 90%
    09:00 +24°C° 0.3 mm 3 mps 680 mmHg 85%
    10:00 +26°C° 0.3 mm 3 mps 680 mmHg 80%
    11:00 +27°C° 0.3 mm 4 mps 680 mmHg 75%
    12:00 +28°C° 0.8 mm 3 mps 679 mmHg 74%
    13:00 +28°C° 0.8 mm 3 mps 678 mmHg 73%
    14:00 +29°C° 0.8 mm 3 mps 678 mmHg 72%
    15:00 +28°C° 0.7 mm 3 mps 678 mmHg 76%
    16:00 +28°C° 0.7 mm 2 mps 677 mmHg 79%
    17:00 +28°C° 0.7 mm 2 mps 677 mmHg 82%
    18:00 +26°C° 1.1 mm 2 mps 678 mmHg 85%
    19:00 +25°C° 1.1 mm 2 mps 678 mmHg 88%
    20:00 +24°C° 1.1 mm 1 mps 678 mmHg 92%
    21:00 +24°C° 1.4 mm 2 mps 678 mmHg 92%
    22:00 +23°C° 1.4 mm 2 mps 679 mmHg 93%
    23:00 +23°C° 1.4 mm 2 mps 679 mmHg 94%

    24 February, Saturday

    Time Temperature Precipitation Wind Pressure Humidity
    00:00 +23°C° 1.6 mm 2 mps 679 mmHg 93%
    01:00 +23°C° 1.6 mm 2 mps 679 mmHg 93%
    02:00 +23°C° 1.6 mm 2 mps 678 mmHg 92%
    03:00 +21°C° 0.2 mm 2 mps 678 mmHg 93%
    04:00 +21°C° 0.2 mm 2 mps 679 mmHg 93%
    05:00 +21°C° 0.2 mm 2 mps 679 mmHg 94%
    06:00 +21°C° 0 mm 2 mps 679 mmHg 92%
    07:00 +23°C° 0 mm 2 mps 680 mmHg 90%
    08:00 +22°C° 0 mm 3 mps 680 mmHg 89%
    09:00 +25°C° 0.6 mm 3 mps 680 mmHg 85%
    10:00 +26°C° 0.6 mm 4 mps 680 mmHg 82%
    11:00 +27°C° 0.6 mm 4 mps 680 mmHg 78%
    12:00 +27°C° 0.8 mm 4 mps 679 mmHg 77%
    13:00 +28°C° 0.8 mm 4 mps 679 mmHg 76%
    14:00 +28°C° 0.8 mm 3 mps 678 mmHg 75%
    15:00 +28°C° 0.7 mm 3 mps 678 mmHg 76%
    16:00 +28°C° 0.7 mm 2 mps 678 mmHg 78%
    17:00 +28°C° 0.7 mm 1 mps 677 mmHg 80%
    18:00 +26°C° 0.9 mm 1 mps 678 mmHg 84%
    19:00 +25°C° 0.9 mm 1 mps 678 mmHg 88%
    20:00 +23°C° 0.9 mm 1 mps 678 mmHg 92%
    21:00 +23°C° 0.8 mm 1 mps 678 mmHg 93%
    22:00 +23°C° 0.8 mm 2 mps 679 mmHg 94%
    23:00 +21°C° 0.8 mm 2 mps 679 mmHg 94%
    Show more